Regional Weather Roundup
Issued by NWS Newport/Morehead, NC

Current Version | Previous Version | Graphics & Text | Print | Product List | Glossary On
Versions: 1 2 3 4 5 6 7 8 9 10 11 12 13 14 15 16 17 18 19 20 21 22 23 24 25 26 27 28 29 30 31 32 33 34 35 36 37 38 39 40 41 42 43 44 45 46 47 48 49 50
000 ASUS42 KMHX 210422 RWRMHX WEATHER ROUNDUP FOR EASTERN NORTH CAROLINA NATIONAL WEATHER SERVICE NEWPORT/MOREHEAD CITY NC 1200 AM EDT TUE OCT 21 2014 NOTE: "FAIR" INDICATES FEW OR NO CLOUDS BELOW 12,000 FEET WITH NO SIGNIFICANT WEATHER AND/OR OBSTRUCTIONS TO VISIBILITY NCZ015>017-031-032-045>047-102-103-210500- NORTH COAST CITY SKY/WX TMP DP RH WIND PRES REMARKS EDENTON MOCLDY 61 56 85 SW5 29.98F ELIZABETH CITY MOCLDY 59 54 83 S3 29.99F KITTY HAWK MOCLDY 64 60 85 S3 29.98F MANTEO MOCLDY 60 59 94 CALM 29.99F $$ NCZ045>047-081-094-103-104-210500- CENTRAL COAST CITY SKY/WX TMP DP RH WIND PRES REMARKS FRISCO MOCLDY 70 60 70 S17G23 30.00F SWANQUARTER N/A 61 N/A N/A NE1 29.94F $$ NCZ095-097-098-100-101-210500- SOUTHERN COAST CITY SKY/WX TMP DP RH WIND PRES REMARKS BEAUFORT LGT RAIN 69 60 73 S13G22 30.00S CEDAR ISLAND N/A 68 N/A N/A S3 30.03S JACKSONVILLE CLEAR 58 56 93 CALM 29.99F PINEY ISLAND PTCLDY 66 59 78 W3 29.99F WILMINGTON MOCLDY 58 56 93 CALM 29.99F $$ NCZ011>013-027>030-043-044-078>080-089-090>093-098-210500- COASTAL PLAIN CITY SKY/WX TMP DP RH WIND PRES REMARKS AHOSKIE MOCLDY 51 49 95 CALM 29.98F CLINTON CLEAR 57 56 99 CALM 30.00F ELIZABETHTOWN CLEAR 57 55 94 CALM 29.99F GOLDSBORO CLEAR 57 57 98 CALM 29.98F GREENVILLE PTCLDY 55 55 100 CALM 30.01F HAVELOCK CLOUDY 59 56 89 CALM 30.00F KENANSVILLE CLEAR 53 52 96 CALM 29.99F KINSTON CLEAR 56 55 97 CALM 29.99F NEW BERN PTCLDY 58 55 90 CALM 30.00F RICHLANDS PTCLDY 54 50 87 CALM 29.99F ROCKY MOUNT MOCLDY 53 51 93 CALM 29.99F WASHINGTON PTCLDY 56 54 92 CALM 29.99F WHITEVILLE FAIR 57 55 93 CALM 29.99F $$ AMZ130-135-150-152-154-156-158-170-250-252-270-ANZ085-086-088-633-658-670-210500- MARINE OBSERVATIONS STATION/POSITION TIME TEMP WIND PRES WAVE SWELL AIR SEA DIR/SP/G HT/PER HT/PER (UTC) (F) (DEG/KT/KT) (MB) (FT/S) (FT/S) CHESAPEAKE LIGHT 0400 66 210/ 17/ 19 1015.4 64 E VA BEACH 0400 70 69 240/ 14/ 16 1015.2 4/ 5 2/10 DUCK 0400 65 69 180/ 7/ 9 1014.6 2 E DUCK 0300 N/A 2/11 2/11 10 NE DUCK 0300 71 N/A 3/11 2/11 OREGON INLET 0400 66 67 160/ 5/ 6 1015.5 13E OREGON INLT 0400 73 N/A 3/13 2/13 HATTERAS CG 0400 71 71 180/ 9/ 13 1016.2 DIAMOND BUOY 0400 72 180/ 16/ 19 1016.3 4/ 8 2/ 8 17 S OCRACOKE 0300 VRB 14/ 17 1016.7 CAPE LOOKOUT 0400 67 240/ 4/ 4 1016.0 BEAUFORT LAB 0400 69 69 190/ 19/ 25 1015.0 30 SE NEW RIVER 0400 74 76 190/ 12/ 14 1015.0 3/ 4 2/10 5 SE WRIGHTSVLE 0300 67 73 310/ 8/ 10 N/A 225 S CAPE HAT 0338 75 80 160/ 14/ 16 1017.4 4/12 3/12 41 SE CHARLESTON 0400 75 80 340/ 4/ 4 1015.6 2/ 9 2/ 9 $$

USA.gov is the U.S. government's official web portal to all federal, state and local government web resources and services.